Date String (YYYY-MM-DD hh:mm:ss) UTC,Instrument flags,absolute air pressure of the measurement (hPa),sample flow rate (lpm),inlet stack bypass flow (lpm),air temperature of the measurement (°C),ambient temperature measured by the external sensor (°C),aerosol sample conditioner tube jacket temperature (°C),OPC LED temperature (°C),internal box temperature (°C),relative humidity of the measurement (%),span deviation,mass concentration of particles derived from Lorenz-Mie calculation of OPC scattering (μg/m³),mass concentration of particles derived from Lorenz-Mie calculation of OPC scattering (μg/m³),mass concentration of particles derived from Lorenz-Mie calculation of OPC scattering (μg/m³)
DateTimeUTC,F1_M11,P_M11,Q1_M11,Q2_M11,T1_M11,T2_M11,T3_M11,T4_M11,T5_M11,U1_M11,ZSPAN_M11,X0_M11,X2_M11,X1_M11
2024-02-25 14:00:00,SystemResetWarning,0823.9,4.99,000.00,019.0,018.3,000.0,027.2,020.6,07.0,0000.0,0012.77,0003.85,0001.68
2024-02-25 14:01:00,SystemResetWarning,0824.0,5.00,000.00,019.0,018.3,000.0,027.2,020.6,07.0,0000.0,0013.11,0003.84,0001.68
2024-02-25 14:02:00,SystemResetWarning,0824.0,5.01,000.00,019.0,018.3,000.0,027.2,020.6,07.0,0000.0,0013.11,0003.81,0001.67
2024-02-25 14:03:00,SystemResetWarning,0824.0,5.01,000.00,019.0,018.3,000.0,027.2,020.6,07.1,0000.0,0013.06,0003.79,0001.66
2024-02-25 14:04:00,SystemResetWarning,0824.0,5.00,000.00,019.0,018.3,000.0,027.2,020.6,07.1,0000.0,0012.95,0003.86,0001.67
2024-02-25 14:05:00,SystemResetWarning,0824.0,5.00,000.00,019.0,018.4,000.0,027.2,020.6,06.9,0000.0,0013.25,0003.94,0001.68
2024-02-25 14:06:00,SystemResetWarning,0824.2,4.99,000.00,019.0,018.4,000.0,027.2,020.6,06.8,0000.0,0013.03,0003.97,0001.67
2024-02-25 14:07:00,SystemResetWarning,0823.9,4.98,000.00,019.0,018.4,000.0,027.2,020.6,06.9,0000.0,0013.35,0003.96,0001.65
2024-02-25 14:08:00,SystemResetWarning,0824.0,5.00,000.00,019.0,018.4,000.0,027.2,020.6,06.9,0000.0,0012.90,0003.94,0001.63
2024-02-25 14:09:00,SystemResetWarning,0824.0,5.00,000.00,019.0,018.4,000.0,027.2,020.6,07.0,0000.0,0011.85,0003.89,0001.62
2024-02-25 14:10:00,SystemResetWarning,0824.0,5.00,000.00,019.1,018.4,000.0,027.2,020.6,06.9,0000.0,0011.87,0003.90,0001.61
2024-02-25 14:11:00,SystemResetWarning,0824.1,5.00,000.00,019.0,018.4,000.0,027.3,020.7,06.9,0000.0,0011.59,0003.93,0001.61
2024-02-25 14:12:00,SystemResetWarning,0824.1,5.00,000.00,019.0,018.4,000.0,027.2,020.7,06.4,0000.0,0011.41,0004.00,0001.62
2024-02-25 14:13:00,SystemResetWarning,0823.7,5.00,000.00,019.1,018.4,000.0,027.2,020.7,06.3,0000.0,0011.22,0004.02,0001.62
2024-02-25 14:14:00,SystemResetWarning,0824.1,5.00,000.00,019.1,018.4,000.0,027.2,020.7,06.6,0000.0,0012.28,0004.04,0001.63
2024-02-25 14:15:00,SystemResetWarning,0824.2,4.99,000.00,019.1,018.4,000.0,027.2,020.6,06.7,0000.0,0012.73,0003.97,0001.61
2024-02-25 14:16:00,SystemResetWarning,0823.9,4.99,000.00,019.1,018.4,000.0,027.2,020.7,06.5,0000.0,0013.32,0003.91,0001.59
2024-02-25 14:17:00,SystemResetWarning,0824.0,4.99,000.00,019.1,018.4,000.0,027.3,020.7,06.5,0000.0,0013.47,0003.89,0001.58
2024-02-25 14:18:00,SystemResetWarning,0824.2,5.00,000.00,019.1,018.4,000.0,027.3,020.7,06.8,0000.0,0013.45,0003.90,0001.60
2024-02-25 14:19:00,SystemResetWarning,0824.2,5.01,000.00,019.1,018.4,000.0,027.3,020.6,06.9,0000.0,0013.51,0003.88,0001.61
2024-02-25 14:20:00,SystemResetWarning,0824.0,5.00,000.00,019.1,018.4,000.0,027.3,020.6,06.9,0000.0,0014.01,0003.92,0001.61
2024-02-25 14:21:00,SystemResetWarning,0824.0,4.99,000.00,019.1,018.4,000.0,027.3,020.6,07.0,0000.0,0013.79,0003.90,0001.61
2024-02-25 14:22:00,SystemResetWarning,0824.1,4.99,000.00,019.1,018.4,000.0,027.3,020.7,07.0,0000.0,0013.24,0003.82,0001.61
2024-02-25 14:23:00,SystemResetWarning,0824.1,5.02,000.00,019.1,018.4,000.0,027.3,020.7,06.9,0000.0,0013.05,0003.76,0001.60
2024-02-25 14:24:00,SystemResetWarning,0824.3,4.99,000.00,019.1,018.4,000.0,027.3,020.7,06.7,0000.0,0013.22,0003.82,0001.59
2024-02-25 14:25:00,SystemResetWarning,0824.4,4.99,000.00,019.1,018.4,000.0,027.3,020.6,06.9,0000.0,0012.37,0003.84,0001.59
2024-02-25 14:26:00,SystemResetWarning,0824.3,5.00,000.00,019.1,018.4,000.0,027.3,020.6,07.0,0000.0,0011.78,0003.86,0001.59
2024-02-25 14:27:00,SystemResetWarning,0824.4,5.00,000.00,019.1,018.4,000.0,027.3,020.7,06.9,0000.0,0011.78,0003.89,0001.59
2024-02-25 14:28:00,SystemResetWarning,0824.5,5.01,000.00,019.1,018.4,000.0,027.3,020.7,07.0,0000.0,0012.07,0003.96,0001.62
2024-02-25 14:29:00,SystemResetWarning,0824.5,5.01,000.00,019.1,018.4,000.0,027.3,020.7,06.8,0000.0,0012.38,0003.98,0001.62
2024-02-25 14:30:00,SystemResetWarning,0824.4,5.00,000.00,019.1,018.4,000.0,027.3,020.7,06.5,0000.0,0012.86,0004.01,0001.61
2024-02-25 14:31:00,SystemResetWarning,0824.4,5.00,000.00,019.1,018.4,000.0,027.3,020.7,06.6,0000.0,0013.03,0004.00,0001.62
2024-02-25 14:32:00,SystemResetWarning,0824.6,4.99,000.00,019.1,018.4,000.0,027.3,020.7,07.0,0000.0,0013.57,0004.02,0001.62
2024-02-25 14:33:00,SystemResetWarning,0824.6,4.99,000.00,019.1,018.4,000.0,027.3,020.7,07.0,0000.0,0014.60,0004.08,0001.65
2024-02-25 14:34:00,SystemResetWarning,0824.6,4.99,000.00,019.1,018.4,000.0,027.3,020.7,06.9,0000.0,0015.10,0004.14,0001.64
2024-02-25 14:35:00,SystemResetWarning,0824.4,5.01,000.00,019.1,018.4,000.0,027.3,020.7,06.9,0000.0,0015.59,0004.06,0001.63
2024-02-25 14:36:00,SystemResetWarning,0824.4,5.01,000.00,019.1,018.5,000.0,027.3,020.7,06.9,0000.0,0015.69,0004.03,0001.64
2024-02-25 14:37:00,SystemResetWarning,0824.3,4.99,000.00,019.1,018.5,000.0,027.3,020.7,06.9,0000.0,0015.33,0003.95,0001.64
2024-02-25 14:38:00,SystemResetWarning,0824.5,4.99,000.00,019.1,018.5,000.0,027.3,020.7,07.1,0000.0,0014.59,0003.92,0001.65
2024-02-25 14:39:00,SystemResetWarning,0824.6,5.00,000.00,019.1,018.5,000.0,027.3,020.7,07.1,0000.0,0014.14,0003.92,0001.62
2024-02-25 14:40:00,SystemResetWarning,0824.7,4.99,000.00,019.1,018.5,000.0,027.3,020.7,07.1,0000.0,0013.53,0003.89,0001.60
2024-02-25 14:41:00,SystemResetWarning,0824.7,5.01,000.00,019.1,018.5,000.0,027.3,020.7,07.2,0000.0,0013.42,0003.93,0001.60
2024-02-25 14:42:00,SystemResetWarning,0824.6,5.01,000.00,019.2,018.5,000.0,027.3,020.7,07.2,0000.0,0013.00,0004.01,0001.61
2024-02-25 14:43:00,SystemResetWarning,0824.3,4.99,000.00,019.2,018.5,000.0,027.3,020.7,06.9,0000.0,0012.77,0004.03,0001.61
2024-02-25 14:44:00,SystemResetWarning,0824.4,4.99,000.00,019.2,018.5,000.0,027.3,020.8,06.8,0000.0,0011.86,0004.03,0001.61
2024-02-25 14:45:00,SystemResetWarning,0824.4,4.99,000.00,019.2,018.6,000.0,027.3,020.8,07.1,0000.0,0011.55,0004.01,0001.62
2024-02-25 14:46:00,SystemResetWarning,0824.6,5.01,000.00,019.2,018.6,000.0,027.3,020.8,07.2,0000.0,0011.55,0004.04,0001.64
2024-02-25 14:47:00,SystemResetWarning,0824.5,5.01,000.00,019.2,018.6,000.0,027.3,020.8,07.0,0000.0,0011.88,0004.08,0001.65
2024-02-25 14:48:00,SystemResetWarning,0824.7,5.01,000.00,019.2,018.6,000.0,027.3,020.8,07.1,0000.0,0012.46,0004.14,0001.64
2024-02-25 14:49:00,SystemResetWarning,0824.6,4.99,000.00,019.2,018.6,000.0,027.3,020.8,07.2,0000.0,0012.57,0004.18,0001.65
2024-02-25 14:50:00,SystemResetWarning,0824.4,4.99,000.00,019.2,018.6,000.0,027.3,020.8,07.3,0000.0,0012.63,0004.10,0001.66
2024-02-25 14:51:00,SystemResetWarning,0824.3,4.99,000.00,019.2,018.6,000.0,027.3,020.8,07.2,0000.0,0013.07,0004.06,0001.66
2024-02-25 14:52:00,SystemResetWarning,0824.3,5.02,000.00,019.2,018.6,000.0,027.3,020.8,07.4,0000.0,0013.06,0004.02,0001.66
2024-02-25 14:53:00,SystemResetWarning,0824.2,4.99,000.00,019.2,018.6,000.0,027.3,020.8,07.6,0000.0,0013.30,0003.97,0001.66
2024-02-25 14:54:00,SystemResetWarning,0824.4,4.99,000.00,019.2,018.6,000.0,027.4,020.8,07.4,0000.0,0013.34,0003.90,0001.66
2024-02-25 14:55:00,SystemResetWarning,0824.3,4.99,000.00,019.2,018.6,000.0,027.4,020.8,07.3,0000.0,0013.22,0003.83,0001.64
2024-02-25 14:56:00,SystemResetWarning,0824.4,4.99,000.00,019.2,018.6,000.0,027.4,020.8,07.8,0000.0,0013.54,0003.82,0001.62
2024-02-25 14:57:00,SystemResetWarning,0824.4,5.01,000.00,019.2,018.6,000.0,027.3,020.8,07.7,0000.0,0013.33,0003.80,0001.62
2024-02-25 14:58:00,SystemResetWarning,0824.5,5.01,000.00,019.2,018.6,000.0,027.3,020.8,07.7,0000.0,0012.48,0003.73,0001.60
2024-02-25 14:59:00,SystemResetWarning,0824.6,5.01,000.00,019.2,018.6,000.0,027.4,020.8,07.5,0000.0,0012.14,0003.70,0001.60
